Regional Weather Roundup
Issued by NWS

Home | Current Version | Previous Version | Graphics & Text | Print | Product List | Glossary On
Versions: 1 2 3 4 5 6 7 8 9 10 11 12 13 14 15 16 17 18 19 20 21 22 23 24 25 26 27 28 29 30 31 32 33 34 35 36 37 38 39 40 41 42 43 44 45 46 47 48 49 50
000
ASUS43 KFSD 222202
RWRSD

WEATHER ROUNDUP FOR SOUTH DAKOTA
NATIONAL WEATHER SERVICE SIOUX FALLS SD
400 PM CST WED FEB 22 2017

NOTE: "FAIR" INDICATES FEW OR NO CLOUDS BELOW 12,000 FEET WITH NO
SIGNIFICANT WEATHER AND/OR OBSTRUCTIONS TO VISIBILITY.


SDZ001>005-009-010-012>017-222300-
NORTHWEST AND NORTH CENTRAL SOUTH DAKOTA

CITY           SKY/WX    TMP DP  RH WIND       PRES   REMARKS
BUFFALO          N/A     34  30  85 N14       29.79R WCI  25
FAITH            N/A     36  31  82 N20G26    29.82R
MOBRIDGE       CLOUDY    37  32  82 N12       29.79R
$$

SDZ012>016-024>037-041>051-057-063-072>074-222300-
SOUTHWEST AND SOUTH CENTRAL SOUTH DAKOTA

CITY           SKY/WX    TMP DP  RH WIND       PRES   REMARKS
RAPID CTY ARPT SUNNY     50  30  46 N30G44    29.76R
PIERRE         MOSUNNY   50  37  61 NW28      29.76R
CUSTER         MOSUNNY   42  13  30 NW13G20   29.77R
ELLSWORTH AFB  SUNNY     48  31  51 N30G39    29.77R
PHILIP         SUNNY     52  34  50 NW25G35   29.76R
PINE RIDGE     CLOUDY    57  19  22 NW18G28   29.77R
SPEARFISH      PTSUNNY   39  30  70 NW16G26   29.83R
WINNER         FAIR      60  30  32 NW20G28   29.74R
$$

SDZ004>011-016>023-039-040-222300-
NORTHEAST SOUTH DAKOTA

CITY           SKY/WX    TMP DP  RH WIND       PRES   REMARKS
ABERDEEN       MIX PCPN  35  31  85 N21       29.79R WCI  24
WATERTOWN      PTSUNNY   43  36  76 N17       29.69R
BROOKINGS      MOSUNNY   50  42  74 NW15      29.66R
SISSETON         N/A     34  33  96 N20       29.73R WCI  23
$$

SDZ017-020-022-023-036>040-048>070-222300-
SOUTHEAST SOUTH DAKOTA

CITY           SKY/WX    TMP DP  RH WIND       PRES   REMARKS
SIOUX FALLS    CLOUDY    55  43  63 NW18G28   29.67R
HURON          PTSUNNY   51  39  63 N17       29.71R
CHAMBERLAIN    MOSUNNY   55  40  57 NW12      29.75R
MITCHELL       MOSUNNY   58  39  49 NW20G28   29.71R
YANKTON        SUNNY    N/A N/A N/A NW23G29   29.67R
$$

ABBREVIATIONS USED IN REMARKS
   TC - TEMPERATURE IN CELSIUS
  WCI - WIND CHILL INDEX
   HX - HEAT INDEX
  VSB - VISIBILITY





USA.gov is the U.S. government's official web portal to all federal, state and local government web resources and services.